This is the latest recevied weather packets stored in our database for station/object DJ3AN. If no packets are shown the sender has not sent any weather packets the latest 10 day(s).
| Time | Temp. | Humidity | Pressure | Rain* | Wind** | Luminosity | Snow |
|---|---|---|---|---|---|---|---|
| 1777728005 | 26.67° C | 36% | 1014.9 hPa | 0 mm | - | - | - |
| 1777727705 | 26.67° C | 35% | 1015 hPa | 0 mm | - | - | - |
| 1777727405 | 26.67° C | 33% | 1015.1 hPa | 0 mm | - | - | - |
| 1777727105 | 26.67° C | 31% | 1015.2 hPa | 0 mm | - | - | - |
| 1777726805 | 26.67° C | 31% | 1015.2 hPa | 0 mm | - | - | - |
| 1777726506 | 26.67° C | 32% | 1015.3 hPa | 0 mm | - | - | - |
| 1777726207 | 27.22° C | 32% | 1015.3 hPa | 0 mm | - | - | - |
| 1777725906 | 26.67° C | 31% | 1015.4 hPa | 0 mm | - | - | - |
| 1777725606 | 27.22° C | 31% | 1015.4 hPa | 0 mm | - | - | - |
| 1777725306 | 26.67° C | 31% | 1015.5 hPa | 0 mm | - | - | - |
| 1777725006 | 26.67° C | 31% | 1015.5 hPa | 0 mm | - | - | - |
| 1777724706 | 27.22° C | 29% | 1015.6 hPa | 0 mm | - | - | - |
| 1777724406 | 27.22° C | 29% | 1015.7 hPa | 0 mm | - | - | - |
| 1777724106 | 27.78° C | 32% | 1015.7 hPa | 0 mm | - | - | - |
| 1777723806 | 26.67° C | 33% | 1015.7 hPa | 0 mm | - | - | - |
| 1777723506 | 26.67° C | 32% | 1015.8 hPa | 0 mm | - | - | - |
| 1777723206 | 26.67° C | 32% | 1015.8 hPa | 0 mm | - | - | - |
| 1777722905 | 26.67° C | 34% | 1015.8 hPa | 0 mm | - | - | - |
| 1777722606 | 26.67° C | 32% | 1016 hPa | 0 mm | - | - | - |
| 1777722305 | 27.22° C | 31% | 1016 hPa | 0 mm | - | - | - |
| 1777722005 | 27.22° C | 30% | 1016.1 hPa | 0 mm | - | - | - |
| 1777721705 | 27.22° C | 31% | 1016.2 hPa | 0 mm | - | - | - |
| 1777721405 | 26.67° C | 31% | 1016.3 hPa | 0 mm | - | - | - |
| 1777721105 | 26.11° C | 32% | 1016.3 hPa | 0 mm | - | - | - |
| 1777720805 | 26.11° C | 31% | 1016.3 hPa | 0 mm | - | - | - |
* Rain latest hour (hover to see other rain measurements)
** Current wind speed in m/s (hover to see current wind gust speed)